Find Starlink 32752

NORAD ID: 62567 Int'l Des: 2025-006 Owner: SPXS Country: US Constellation: starlink operational
LEOCIRCULAR

Live-Position

3D-Globus wird geladen...

Über Starlink 32752

Beschreibung wird geladen...

Nächste Überflüge

Passes for default location (London). Set your location on the main map for personalized predictions.

Höhenverlauf

Loading altitude history...

Zweizeiliger Elementsatz

1 62567U 25006P 26123.88880020 .00017197 00000-0 63271-3 0 9994
2 62567 43.0029 340.9312 0000680 241.2618 118.8166 15.27593787 73304
Epoch: 3. Mai 2026 • Age: 6 hours

Aktueller Status

Höhe 485.9 km
Geschwindigkeit 7.62 km/s
Subsatellitenpunkt -14.83°S, 48.35°E
Startdatum 10. Jan. 2025
Alter 1.3 years
Typ internet

Technische Details

Klassifizierung Payload
Masse 730.00 kg
Trockenmasse 700.00 kg
Gesamtmasse 730.00 kg
Länge 0.30 m
Durchmesser 4.10 m
Spannweite 29.00 m
Form Box + pan
Hersteller SPXS
Bus-Typ Starlink V2M
Phasenstatus In Orbit
Besitzer/Staat SPXS/US

Most Searched